| time (UTC) | temp F | wind direction | speed MPH | gust MPH | rain 1hr in | rain 24hr in | rain mn in | humidity % | barometer mb |
| 20260508115051 | 46 | 102 | 3.0 | 4.0 | 0.00 | 0.00 | 0.00 | 40 | 1019.2 |
| 20260508114555 | 47 | 108 | 2.0 | 3.0 | 0.00 | 0.00 | 0.00 | 40 | 1019.2 |
| 20260508114104 | 47 | 109 | 3.0 | 4.0 | 0.00 | 0.00 | 0.00 | 38 | 1019.2 |
| 20260508113555 | 47 | 112 | 3.0 | 4.0 | 0.00 | 0.00 | 0.00 | 38 | 1019.2 |
| 20260508113115 | 48 | 115 | 2.0 | 4.0 | 0.00 | 0.00 | 0.00 | 38 | 1019.2 |
| 20260508112553 | 48 | 118 | 2.0 | 3.0 | 0.00 | 0.00 | 0.00 | 37 | 1019.2 |
| 20260508112044 | 48 | 106 | 2.0 | 3.0 | 0.00 | 0.00 | 0.00 | 36 | 1019.2 |
| 20260508111533 | 49 | 84 | 2.0 | 3.0 | 0.00 | 0.00 | 0.00 | 36 | 1019.2 |
| 20260508111042 | 49 | 79 | 0.0 | 4.0 | 0.00 | 0.00 | 0.00 | 36 | 1019.1 |
| 20260508110548 | 49 | 44 | 2.0 | 2.0 | 0.00 | 0.00 | 0.00 | 35 | 1019.2 |
| 20260508110059 | 50 | 355 | 1.0 | 2.0 | 0.00 | 0.00 | 0.00 | 34 | 1019.2 |
| 20260508105545 | 50 | 355 | 1.0 | 2.0 | 0.00 | 0.00 | 0.00 | 34 | 1019.1 |
| 20260508105053 | 51 | 333 | 1.0 | 1.0 | 0.00 | 0.00 | 0.00 | 34 | 1019.0 |
| 20260508104559 | 51 | 333 | 0.0 | 3.0 | 0.00 | 0.00 | 0.00 | 34 | 1019.1 |
| 20260508104002 | 51 | 333 | 1.0 | 3.0 | 0.00 | 0.00 | 0.00 | 34 | 1019.1 |
| 20260508103558 | 51 | 5 | 1.0 | 4.0 | 0.00 | 0.00 | 0.00 | 34 | 1019.1 |
| 20260508103001 | 51 | 11 | 2.0 | 4.0 | 0.00 | 0.00 | 0.00 | 33 | 1019.1 |
| 20260508102556 | 51 | 17 | 2.0 | 4.0 | 0.00 | 0.00 | 0.00 | 33 | 1019.1 |
| 20260508102047 | 52 | 11 | 3.0 | 5.0 | 0.00 | 0.00 | 0.00 | 33 | 1019.1 |
| 20260508101555 | 52 | 27 | 2.0 | 5.0 | 0.00 | 0.00 | 0.00 | 33 | 1019.1 |
| 20260508101101 | 52 | 30 | 3.0 | 6.0 | 0.00 | 0.00 | 0.00 | 33 | 1019.1 |
| 20260508100503 | 52 | 35 | 3.0 | 5.0 | 0.00 | 0.00 | 0.00 | 33 | 1019.0 |
| 20260508100049 | 52 | 13 | 3.0 | 5.0 | 0.00 | 0.00 | 0.00 | 33 | 1019.0 |
| 20260508095556 | 52 | 23 | 2.0 | 5.0 | 0.00 | 0.00 | 0.00 | 33 | 1019.0 |
| 20260508095103 | 52 | 14 | 3.0 | 5.0 | 0.00 | 0.00 | 0.00 | 33 | 1019.0 |
| 20260508094509 | 51 | 26 | 3.0 | 6.0 | 0.00 | 0.00 | 0.00 | 33 | 1019.0 |
| 20260508094012 | 51 | 19 | 3.0 | 5.0 | 0.00 | 0.00 | 0.00 | 32 | 1019.0 |
| 20260508093503 | 51 | 39 | 3.0 | 5.0 | 0.00 | 0.00 | 0.00 | 32 | 1019.0 |
| 20260508093015 | 51 | 42 | 3.0 | 5.0 | 0.00 | 0.00 | 0.00 | 32 | 1018.9 |
| 20260508092501 | 51 | 37 | 2.0 | 4.0 | 0.00 | 0.00 | 0.00 | 32 | 1019.0 |
| 20260508092009 | 51 | 31 | 2.0 | 4.0 | 0.00 | 0.00 | 0.00 | 32 | 1018.9 |
| 20260508091602 | 51 | 33 | 3.0 | 4.0 | 0.00 | 0.00 | 0.00 | 32 | 1018.9 |
| 20260508091056 | 51 | 26 | 2.0 | 3.0 | 0.00 | 0.00 | 0.00 | 32 | 1018.9 |
| 20260508090601 | 52 | 9 | 1.0 | 2.0 | 0.00 | 0.00 | 0.00 | 31 | 1019.0 |
| 20260508090053 | 52 | 22 | 1.0 | 2.0 | 0.00 | 0.00 | 0.00 | 31 | 1018.9 |
| 20260508085602 | 52 | 22 | 1.0 | 2.0 | 0.00 | 0.00 | 0.00 | 31 | 1018.9 |
| 20260508085001 | 53 | 22 | 1.0 | 3.0 | 0.00 | 0.00 | 0.00 | 31 | 1019.0 |
| 20260508084509 | 53 | 9 | 1.0 | 3.0 | 0.00 | 0.00 | 0.00 | 30 | 1018.9 |
| 20260508084015 | 53 | 14 | 1.0 | 2.0 | 0.00 | 0.00 | 0.00 | 30 | 1019.1 |
| 20260508083521 | 53 | 36 | 1.0 | 2.0 | 0.00 | 0.00 | 0.00 | 30 | 1019.0 |
| 20260508083027 | 53 | 36 | 1.0 | 2.0 | 0.00 | 0.00 | 0.00 | 30 | 1019.0 |
| 20260508082536 | 54 | 36 | 1.0 | 3.0 | 0.00 | 0.00 | 0.00 | 30 | 1019.0 |
| 20260508082040 | 54 | 39 | 1.0 | 4.0 | 0.00 | 0.00 | 0.00 | 30 | 1019.2 |
| 20260508081547 | 54 | 59 | 1.0 | 4.0 | 0.00 | 0.00 | 0.00 | 30 | 1019.1 |
| 20260508081037 | 54 | 56 | 2.0 | 3.0 | 0.00 | 0.00 | 0.00 | 30 | 1019.1 |
| 20260508080545 | 54 | 55 | 2.0 | 3.0 | 0.00 | 0.00 | 0.00 | 30 | 1019.2 |
| 20260508080051 | 54 | 66 | 2.0 | 4.0 | 0.00 | 0.00 | 0.00 | 29 | 1019.2 |
| 20260508075555 | 54 | 56 | 2.0 | 4.0 | 0.00 | 0.00 | 0.00 | 30 | 1019.2 |
| 20260508075059 | 54 | 39 | 2.0 | 4.0 | 0.00 | 0.00 | 0.00 | 30 | 1019.1 |
| 20260508074502 | 54 | 47 | 2.0 | 4.0 | 0.00 | 0.00 | 0.00 | 29 | 1019.2 |
| 20260508074058 | 54 | 37 | 2.0 | 3.0 | 0.00 | 0.00 | 0.00 | 28 | 1019.3 |
| 20260508073501 | 54 | 355 | 0.0 | 2.0 | 0.00 | 0.00 | 0.00 | 28 | 1019.3 |
| 20260508073056 | 54 | 355 | 0.0 | 2.0 | 0.00 | 0.00 | 0.00 | 27 | 1019.3 |
| 20260508072601 | 55 | 355 | 1.0 | 3.0 | 0.00 | 0.00 | 0.00 | 27 | 1019.3 |
| 20260508072005 | 55 | 343 | 1.0 | 3.0 | 0.00 | 0.00 | 0.00 | 27 | 1019.3 |
| 20260508071600 | 55 | 332 | 1.0 | 3.0 | 0.00 | 0.00 | 0.00 | 26 | 1019.3 |
| 20260508071003 | 56 | 326 | 1.0 | 2.0 | 0.00 | 0.00 | 0.00 | 26 | 1019.4 |
| 20260508070559 | 56 | 326 | 1.0 | 2.0 | 0.00 | 0.00 | 0.00 | 26 | 1019.4 |
| 20260508070002 | 56 | 338 | 1.0 | 2.0 | 0.00 | 0.00 | 0.00 | 26 | 1019.3 |
| 20260508065557 | 56 | 338 | 1.0 | 2.0 | 0.00 | 0.00 | 0.00 | 26 | 1019.4 |
| 20260508065048 | 56 | 338 | 1.0 | 2.0 | 0.00 | 0.00 | 0.00 | 26 | 1019.3 |
| 20260508064556 | 56 | 338 | 1.0 | 2.0 | 0.00 | 0.00 | 0.00 | 26 | 1019.4 |
| 20260508064047 | 56 | 329 | 1.0 | 2.0 | 0.00 | 0.00 | 0.00 | 26 | 1019.4 |
| 20260508063555 | 56 | 329 | 0.0 | 2.0 | 0.00 | 0.00 | 0.00 | 26 | 1019.2 |
| 20260508063100 | 56 | 329 | 1.0 | 2.0 | 0.00 | 0.00 | 0.00 | 26 | 1019.3 |
| 20260508062503 | 57 | 329 | 1.0 | 3.0 | 0.00 | 0.00 | 0.00 | 26 | 1019.2 |
| 20260508062100 | 57 | 329 | 1.0 | 3.0 | 0.00 | 0.00 | 0.00 | 25 | 1019.2 |
| 20260508061507 | 57 | 317 | 1.0 | 3.0 | 0.00 | 0.00 | 0.00 | 25 | 1019.1 |
| 20260508061058 | 57 | 337 | 1.0 | 4.0 | 0.00 | 0.00 | 0.00 | 25 | 1019.1 |
| 20260508060603 | 57 | 341 | 2.0 | 4.0 | 0.00 | 0.00 | 0.00 | 25 | 1019.1 |
| 20260508060002 | 58 | 350 | 2.0 | 4.0 | 0.00 | 0.00 | 0.00 | 25 | 1019.1 |
| 20260508055509 | 58 | 349 | 1.0 | 3.0 | 0.00 | 0.00 | 0.00 | 24 | 1019.1 |
| 20260508055105 | 58 | 330 | 0.0 | 2.0 | 0.00 | 0.00 | 0.00 | 24 | 1019.1 |
| 20260508054508 | 59 | 321 | 0.0 | 2.0 | 0.00 | 0.00 | 0.00 | 24 | 1019.1 |
| 20260508054100 | 59 | 321 | 0.0 | 2.0 | 0.00 | 0.00 | 0.00 | 24 | 1019.1 |
| 20260508053501 | 59 | 306 | 0.0 | 5.0 | 0.00 | 0.00 | 0.00 | 24 | 1019.1 |
| 20260508053009 | 59 | 302 | 2.0 | 5.0 | 0.00 | 0.00 | 0.00 | 24 | 1019.1 |
| 20260508052604 | 59 | 295 | 2.0 | 3.0 | 0.00 | 0.00 | 0.00 | 24 | 1019.2 |
| 20260508052008 | 59 | 269 | 1.0 | 3.0 | 0.00 | 0.00 | 0.00 | 24 | 1019.2 |
| 20260508051603 | 59 | 252 | 1.0 | 3.0 | 0.00 | 0.00 | 0.00 | 24 | 1019.3 |
| 20260508051004 | 59 | 263 | 1.0 | 3.0 | 0.00 | 0.00 | 0.00 | 24 | 1019.2 |
| 20260508050600 | 59 | 288 | 2.0 | 3.0 | 0.00 | 0.00 | 0.00 | 24 | 1019.2 |
| 20260508050050 | 60 | 287 | 2.0 | 4.0 | 0.00 | 0.00 | 0.00 | 23 | 1019.3 |
| 20260508045554 | 60 | 273 | 2.0 | 5.0 | 0.00 | 0.00 | 0.00 | 23 | 1019.3 |
| 20260508045044 | 60 | 290 | 3.0 | 7.0 | 0.00 | 0.00 | 0.00 | 23 | 1019.3 |
| 20260508044536 | 60 | 278 | 3.0 | 7.0 | 0.00 | 0.00 | 0.00 | 23 | 1019.3 |
| 20260508044045 | 60 | 257 | 4.0 | 7.0 | 0.00 | 0.00 | 0.00 | 23 | 1019.3 |
| 20260508043534 | 61 | 267 | 2.0 | 7.0 | 0.00 | 0.00 | 0.00 | 23 | 1019.2 |
| 20260508043044 | 61 | 294 | 3.0 | 8.0 | 0.00 | 0.00 | 0.00 | 23 | 1019.1 |
| 20260508042545 | 61 | 280 | 4.0 | 10.0 | 0.00 | 0.00 | 0.00 | 23 | 1019.2 |
| 20260508042053 | 61 | 304 | 5.0 | 10.0 | 0.00 | 0.00 | 0.00 | 23 | 1019.1 |
| 20260508041543 | 61 | 293 | 5.0 | 9.0 | 0.00 | 0.00 | 0.00 | 23 | 1019.0 |
| 20260508041049 | 61 | 314 | 6.0 | 9.0 | 0.00 | 0.00 | 0.00 | 23 | 1019.0 |
| 20260508040555 | 60 | 294 | 6.0 | 9.0 | 0.00 | 0.00 | 0.00 | 23 | 1019.0 |
| 20260508035502 | 60 | 299 | 4.0 | 11.0 | 0.00 | 0.00 | 0.00 | 23 | 1018.9 |
| 20260508035012 | 60 | 295 | 4.0 | 11.0 | 0.00 | 0.00 | 0.00 | 23 | 1018.8 |
| 20260508034502 | 61 | 288 | 4.0 | 7.0 | 0.00 | 0.00 | 0.00 | 22 | 1018.8 |
| 20260508034010 | 61 | 289 | 3.0 | 6.0 | 0.00 | 0.00 | 0.00 | 22 | 1018.8 |
| 20260508033514 | 61 | 293 | 3.0 | 8.0 | 0.00 | 0.00 | 0.00 | 22 | 1018.7 |
| 20260508033104 | 62 | 278 | 4.0 | 9.0 | 0.00 | 0.00 | 0.00 | 22 | 1018.6 |
| 20260508032506 | 62 | 306 | 4.0 | 12.0 | 0.00 | 0.00 | 0.00 | 22 | 1018.6 |
| 20260508032103 | 62 | 283 | 6.0 | 12.0 | 0.00 | 0.00 | 0.00 | 22 | 1018.5 |
| 20260508031551 | 62 | 287 | 7.0 | 12.0 | 0.00 | 0.00 | 0.00 | 21 | 1018.5 |
| 20260508031100 | 62 | 296 | 7.0 | 11.0 | 0.00 | 0.00 | 0.00 | 21 | 1018.4 |
| 20260508030551 | 63 | 281 | 6.0 | 11.0 | 0.00 | 0.00 | 0.00 | 21 | 1018.3 |
| 20260508030058 | 63 | 303 | 6.0 | 12.0 | 0.00 | 0.00 | 0.00 | 21 | 1018.3 |
| 20260508025603 | 63 | 273 | 7.0 | 12.0 | 0.00 | 0.00 | 0.00 | 21 | 1018.2 |
| 20260508025010 | 63 | 286 | 7.0 | 12.0 | 0.00 | 0.00 | 0.00 | 20 | 1018.2 |
| 20260508024604 | 64 | 285 | 7.0 | 11.0 | 0.00 | 0.00 | 0.00 | 20 | 1018.1 |
| 20260508024006 | 64 | 291 | 5.0 | 10.0 | 0.00 | 0.00 | 0.00 | 20 | 1018.0 |
| 20260508023600 | 64 | 294 | 6.0 | 12.0 | 0.00 | 0.00 | 0.00 | 20 | 1018.0 |
| 20260508023002 | 65 | 271 | 7.0 | 11.0 | 0.00 | 0.00 | 0.00 | 19 | 1017.9 |
| 20260508022559 | 65 | 292 | 5.0 | 11.0 | 0.00 | 0.00 | 0.00 | 19 | 1017.9 |
| 20260508022049 | 65 | 259 | 6.0 | 12.0 | 0.00 | 0.00 | 0.00 | 19 | 1017.8 |
| 20260508021557 | 65 | 268 | 8.0 | 12.0 | 0.00 | 0.00 | 0.00 | 19 | 1017.8 |
| 20260508021103 | 66 | 302 | 5.0 | 11.0 | 0.00 | 0.00 | 0.00 | 19 | 1017.8 |
| 20260508020505 | 66 | 297 | 6.0 | 12.0 | 0.00 | 0.00 | 0.00 | 18 | 1017.8 |
| 20260508020057 | 66 | 293 | 5.0 | 12.0 | 0.00 | 0.00 | 0.00 | 18 | 1017.8 |
| 20260508015604 | 66 | 294 | 6.0 | 15.0 | 0.00 | 0.00 | 0.00 | 18 | 1017.7 |
| 20260508015003 | 67 | 312 | 8.0 | 14.0 | 0.00 | 0.00 | 0.00 | 18 | 1017.7 |
| 20260508014509 | 67 | 180 | 7.0 | 14.0 | 0.00 | 0.00 | 0.00 | 18 | 1017.7 |
| 20260508014103 | 68 | 249 | 7.0 | 14.0 | 0.00 | 0.00 | 0.00 | 17 | 1017.7 |
| 20260508013508 | 68 | 293 | 9.0 | 16.0 | 0.00 | 0.00 | 0.00 | 17 | 1017.7 |
| 20260508013020 | 68 | 303 | 7.0 | 16.0 | 0.00 | 0.00 | 0.00 | 17 | 1017.8 |
| 20260508012517 | 68 | 229 | 9.0 | 17.0 | 0.00 | 0.00 | 0.00 | 17 | 1017.8 |
| 20260508012023 | 69 | 292 | 10.0 | 17.0 | 0.00 | 0.00 | 0.00 | 17 | 1017.8 |
| 20260508011532 | 69 | 277 | 10.0 | 17.0 | 0.00 | 0.00 | 0.00 | 16 | 1017.7 |
| 20260508011035 | 69 | 302 | 7.0 | 16.0 | 0.00 | 0.00 | 0.00 | 16 | 1017.9 |
| 20260508010541 | 69 | 300 | 8.0 | 17.0 | 0.00 | 0.00 | 0.00 | 16 | 1017.7 |
| 20260508010049 | 70 | 223 | 8.0 | 17.0 | 0.00 | 0.00 | 0.00 | 16 | 1017.8 |
| 20260508005540 | 70 | 265 | 6.0 | 17.0 | 0.00 | 0.00 | 0.00 | 16 | 1017.7 |
| 20260508005050 | 70 | 246 | 8.0 | 15.0 | 0.00 | 0.00 | 0.00 | 16 | 1017.9 |
| 20260508004604 | 70 | 270 | 8.0 | 15.0 | 0.00 | 0.00 | 0.00 | 16 | 1017.7 |
| 20260508004103 | 71 | 273 | 8.0 | 14.0 | 0.00 | 0.00 | 0.00 | 16 | 1017.8 |
| 20260508003552 | 71 | 304 | 9.0 | 16.0 | 0.00 | 0.00 | 0.00 | 16 | 1017.7 |
| 20260508003105 | 71 | 311 | 8.0 | 15.0 | 0.00 | 0.00 | 0.00 | 15 | 1017.8 |
| 20260508002551 | 71 | 287 | 8.0 | 17.0 | 0.00 | 0.00 | 0.00 | 15 | 1017.7 |
| 20260508002057 | 71 | 263 | 13.0 | 17.0 | 0.00 | 0.00 | 0.00 | 15 | 1017.8 |
| 20260508001547 | 72 | 304 | 8.0 | 15.0 | 0.00 | 0.00 | 0.00 | 15 | 1017.8 |
| 20260508001038 | 72 | 308 | 11.0 | 15.0 | 0.00 | 0.00 | 0.00 | 14 | 1017.7 |
| 20260508000547 | 72 | 267 | 8.0 | 14.0 | 0.00 | 0.00 | 0.00 | 14 | 1017.7 |
| 20260508000052 | 72 | 282 | 8.0 | 14.0 | 0.00 | 0.00 | 0.00 | 14 | 1017.7 |
| 20260507235558 | 72 | 294 | 8.0 | 14.0 | 0.00 | 0.00 | 0.00 | 14 | 1017.7 |
| 20260507235105 | 72 | 284 | 11.0 | 17.0 | 0.00 | 0.00 | 0.00 | 14 | 1017.7 |
| 20260507234506 | 73 | 276 | 11.0 | 17.0 | 0.00 | 0.00 | 0.00 | 14 | 1017.7 |
| 20260507234101 | 72 | 241 | 4.0 | 16.0 | 0.00 | 0.00 | 0.00 | 14 | 1017.7 |
| 20260507233505 | 72 | 293 | 8.0 | 20.0 | 0.00 | 0.00 | 0.00 | 14 | 1017.7 |
| 20260507233101 | 73 | 257 | 10.0 | 20.0 | 0.00 | 0.00 | 0.00 | 14 | 1017.8 |
| 20260507232552 | 73 | 293 | 6.0 | 10.0 | 0.00 | 0.00 | 0.00 | 14 | 1017.8 |
| 20260507232059 | 73 | 180 | 3.0 | 12.0 | 0.00 | 0.00 | 0.00 | 14 | 1017.8 |
| 20260507231555 | 72 | 296 | 4.0 | 16.0 | 0.00 | 0.00 | 0.00 | 14 | 1017.8 |
| 20260507231100 | 72 | 273 | 9.0 | 16.0 | 0.00 | 0.00 | 0.00 | 14 | 1017.9 |
| 20260507230606 | 73 | 305 | 8.0 | 15.0 | 0.00 | 0.00 | 0.00 | 13 | 1017.9 |
| 20260507230007 | 73 | 264 | 9.0 | 15.0 | 0.00 | 0.00 | 0.00 | 13 | 1018.0 |
| 20260507225603 | 73 | 263 | 3.0 | 11.0 | 0.00 | 0.00 | 0.00 | 12 | 1018.1 |
| 20260507225007 | 73 | 339 | 4.0 | 13.0 | 0.00 | 0.00 | 0.00 | 12 | 1018.1 |
| 20260507224601 | 73 | 304 | 8.0 | 13.0 | 0.00 | 0.00 | 0.00 | 12 | 1018.1 |
| 20260507224002 | 73 | 32 | 3.0 | 12.0 | 0.00 | 0.00 | 0.00 | 12 | 1018.3 |
| 20260507223558 | 73 | 323 | 6.0 | 13.0 | 0.00 | 0.00 | 0.00 | 12 | 1018.3 |
| 20260507223049 | 73 | 235 | 5.0 | 13.0 | 0.00 | 0.00 | 0.00 | 12 | 1018.3 |
| 20260507222557 | 72 | 233 | 4.0 | 13.0 | 0.00 | 0.00 | 0.00 | 12 | 1018.4 |
| 20260507222048 | 72 | 316 | 6.0 | 14.0 | 0.00 | 0.00 | 0.00 | 12 | 1018.4 |
| 20260507221555 | 72 | 244 | 5.0 | 11.0 | 0.00 | 0.00 | 0.00 | 12 | 1018.4 |
| 20260507221100 | 72 | 191 | 5.0 | 10.0 | 0.00 | 0.00 | 0.00 | 12 | 1018.5 |
| 20260507220504 | 71 | 331 | 5.0 | 12.0 | 0.00 | 0.00 | 0.00 | 13 | 1018.7 |
| 20260507220055 | 71 | 270 | 4.0 | 12.0 | 0.00 | 0.00 | 0.00 | 12 | 1018.8 |
| 20260507215602 | 72 | 289 | 5.0 | 11.0 | 0.00 | 0.00 | 0.00 | 12 | 1018.8 |
| 20260507215002 | 71 | 256 | 4.0 | 12.0 | 0.00 | 0.00 | 0.00 | 12 | 1018.9 |
| 20260507214511 | 72 | 247 | 5.0 | 10.0 | 0.00 | 0.00 | 0.00 | 12 | 1019.0 |
| 20260507214001 | 71 | 277 | 0.0 | 11.0 | 0.00 | 0.00 | 0.00 | 12 | 1019.1 |
| 20260507213515 | 71 | 286 | 5.0 | 12.0 | 0.00 | 0.00 | 0.00 | 13 | 1019.2 |
| 20260507213109 | 71 | 306 | 6.0 | 12.0 | 0.00 | 0.00 | 0.00 | 12 | 1019.3 |
| 20260507212508 | 71 | 235 | 2.0 | 10.0 | 0.00 | 0.00 | 0.00 | 13 | 1019.4 |
| 20260507212101 | 70 | 198 | 3.0 | 10.0 | 0.00 | 0.00 | 0.00 | 13 | 1019.5 |
| 20260507211503 | 69 | 214 | 6.0 | 14.0 | 0.00 | 0.00 | 0.00 | 13 | 1019.7 |
| 20260507211011 | 69 | 318 | 4.0 | 12.0 | 0.00 | 0.00 | 0.00 | 13 | 1019.6 |
| 20260507210502 | 69 | 297 | 5.0 | 11.0 | 0.00 | 0.00 | 0.00 | 14 | 1019.7 |
| 20260507210026 | 70 | 308 | 6.0 | 11.0 | 0.00 | 0.00 | 0.00 | 13 | 1019.9 |
| 20260507205604 | 70 | 223 | 3.0 | 13.0 | 0.00 | 0.00 | 0.00 | 14 | 1019.9 |
| 20260507205006 | 69 | 271 | 5.0 | 13.0 | 0.00 | 0.00 | 0.00 | 14 | 1020.1 |
| 20260507204609 | 69 | 329 | 2.0 | 13.0 | 0.00 | 0.00 | 0.00 | 15 | 1020.0 |
| 20260507204054 | 68 | 327 | 6.0 | 13.0 | 0.00 | 0.00 | 0.00 | 16 | 1020.1 |
| 20260507203559 | 68 | 302 | 4.0 | 14.0 | 0.00 | 0.00 | 0.00 | 16 | 1020.1 |
| 20260507203105 | 68 | 210 | 6.0 | 14.0 | 0.00 | 0.00 | 0.00 | 16 | 1020.3 |
| 20260507202507 | 68 | 309 | 3.0 | 12.0 | 0.00 | 0.00 | 0.00 | 16 | 1020.3 |
| 20260507202105 | 67 | 207 | 3.0 | 18.0 | 0.00 | 0.00 | 0.00 | 17 | 1020.5 |
| 20260507201509 | 67 | 296 | 9.0 | 18.0 | 0.00 | 0.00 | 0.00 | 17 | 1020.5 |
| 20260507201102 | 67 | 285 | 7.0 | 12.0 | 0.00 | 0.00 | 0.00 | 17 | 1020.5 |
| 20260507200504 | 67 | 194 | 3.0 | 12.0 | 0.00 | 0.00 | 0.00 | 17 | 1020.7 |
| 20260507200058 | 66 | 298 | 3.0 | 12.0 | 0.00 | 0.00 | 0.00 | 16 | 1020.7 |
| 20260507195549 | 68 | 290 | 6.0 | 11.0 | 0.00 | 0.00 | 0.00 | 16 | 1020.7 |
| 20260507195059 | 68 | 57 | 1.0 | 8.0 | 0.00 | 0.00 | 0.00 | 17 | 1020.7 |
| 20260507194636 | 67 | 217 | 2.0 | 10.0 | 0.00 | 0.00 | 0.00 | 16 | 1020.9 |
| 20260507194006 | 67 | 234 | 2.0 | 10.0 | 0.00 | 0.00 | 0.00 | 16 | 1021.0 |
| 20260507193601 | 67 | 286 | 4.0 | 10.0 | 0.00 | 0.00 | 0.00 | 16 | 1021.1 |
| 20260507193005 | 67 | 281 | 6.0 | 10.0 | 0.00 | 0.00 | 0.00 | 17 | 1021.1 |
| 20260507192559 | 67 | 335 | 1.0 | 7.0 | 0.00 | 0.00 | 0.00 | 17 | 1021.2 |
| 20260507192050 | 66 | 209 | 3.0 | 6.0 | 0.00 | 0.00 | 0.00 | 17 | 1021.4 |
| 20260507191558 | 65 | 234 | 0.0 | 5.0 | 0.00 | 0.00 | 0.00 | 17 | 1021.6 |
| 20260507191048 | 64 | 323 | 2.0 | 7.0 | 0.00 | 0.00 | 0.00 | 18 | 1021.6 |
| 20260507190555 | 64 | 271 | 4.0 | 10.0 | 0.00 | 0.00 | 0.00 | 18 | 1021.7 |
| 20260507190100 | 63 | 225 | 3.0 | 10.0 | 0.00 | 0.00 | 0.00 | 19 | 1021.7 |
| 20260507185502 | 62 | 313 | 6.0 | 10.0 | 0.00 | 0.00 | 0.00 | 19 | 1021.8 |
| 20260507185100 | 63 | 338 | 2.0 | 12.0 | 0.00 | 0.00 | 0.00 | 19 | 1021.8 |
| 20260507184607 | 63 | 248 | 6.0 | 12.0 | 0.00 | 0.00 | 0.00 | 18 | 1022.0 |
| 20260507184054 | 63 | 314 | 2.0 | 8.0 | 0.00 | 0.00 | 0.00 | 18 | 1021.9 |
| 20260507183542 | 62 | 333 | 3.0 | 8.0 | 0.00 | 0.00 | 0.00 | 19 | 1022.0 |
| 20260507183049 | 62 | 265 | 3.0 | 9.0 | 0.00 | 0.00 | 0.00 | 19 | 1022.1 |
| 20260507182555 | 62 | 293 | 4.0 | 9.0 | 0.00 | 0.00 | 0.00 | 19 | 1022.2 |
| 20260507182102 | 63 | 284 | 1.0 | 9.0 | 0.00 | 0.00 | 0.00 | 18 | 1022.1 |
| 20260507181503 | 63 | 304 | 4.0 | 9.0 | 0.00 | 0.00 | 0.00 | 19 | 1022.3 |
| 20260507181011 | 62 | 325 | 4.0 | 8.0 | 0.00 | 0.00 | 0.00 | 19 | 1022.4 |
| 20260507180516 | 63 | 263 | 2.0 | 8.0 | 0.00 | 0.00 | 0.00 | 19 | 1022.4 |
| 20260507180008 | 63 | 221 | 1.0 | 5.0 | 0.00 | 0.00 | 0.00 | 19 | 1022.5 |
| 20260507175605 | 62 | 222 | 2.0 | 8.0 | 0.00 | 0.00 | 0.00 | 19 | 1022.6 |
| 20260507175009 | 63 | 311 | 3.0 | 8.0 | 0.00 | 0.00 | 0.00 | 19 | 1022.6 |
| 20260507174602 | 63 | 205 | 4.0 | 8.0 | 0.00 | 0.00 | 0.00 | 19 | 1022.6 |
| 20260507174003 | 62 | 223 | 1.0 | 8.0 | 0.00 | 0.00 | 0.00 | 21 | 1022.6 |
| 20260507173559 | 62 | 221 | 4.0 | 8.0 | 0.00 | 0.00 | 0.00 | 21 | 1022.7 |
| 20260507173050 | 62 | 178 | 2.0 | 8.0 | 0.00 | 0.00 | 0.00 | 23 | 1022.6 |
| 20260507172557 | 61 | 242 | 1.0 | 7.0 | 0.00 | 0.00 | 0.00 | 23 | 1022.7 |
| 20260507172047 | 61 | 321 | 2.0 | 7.0 | 0.00 | 0.00 | 0.00 | 22 | 1022.9 |
| 20260507171545 | 61 | 304 | 3.0 | 7.0 | 0.00 | 0.00 | 0.00 | 21 | 1022.9 |
| 20260507171047 | 61 | 241 | 1.0 | 5.0 | 0.00 | 0.00 | 0.00 | 22 | 1023.0 |
| 20260507170535 | 60 | 173 | 1.0 | 9.0 | 0.00 | 0.00 | 0.00 | 23 | 1023.0 |
| 20260507170044 | 60 | 166 | 2.0 | 9.0 | 0.00 | 0.00 | 0.00 | 23 | 1023.0 |
| 20260507165550 | 60 | 165 | 3.0 | 7.0 | 0.00 | 0.00 | 0.00 | 25 | 1023.0 |
| 20260507165058 | 59 | 196 | 1.0 | 6.0 | 0.00 | 0.00 | 0.00 | 24 | 1023.0 |
| 20260507164549 | 58 | 140 | 1.0 | 7.0 | 0.00 | 0.00 | 0.00 | 26 | 1023.1 |
| 20260507164057 | 57 | 53 | 2.0 | 6.0 | 0.00 | 0.00 | 0.00 | 24 | 1023.0 |
| 20260507163606 | 57 | 57 | 3.0 | 6.0 | 0.00 | 0.00 | 0.00 | 26 | 1023.0 |
| 20260507163006 | 58 | 99 | 3.0 | 6.0 | 0.00 | 0.00 | 0.00 | 25 | 1023.1 |
| 20260507162602 | 58 | 191 | 2.0 | 5.0 | 0.00 | 0.00 | 0.00 | 26 | 1023.3 |
| 20260507162005 | 57 | 82 | 1.0 | 5.0 | 0.00 | 0.00 | 0.00 | 26 | 1023.3 |
| 20260507161600 | 56 | 168 | 3.0 | 5.0 | 0.00 | 0.00 | 0.00 | 27 | 1023.4 |
| 20260507161105 | 55 | 77 | 2.0 | 5.0 | 0.00 | 0.00 | 0.00 | 28 | 1023.4 |
| 20260507160556 | 55 | 97 | 2.0 | 6.0 | 0.00 | 0.00 | 0.00 | 28 | 1023.5 |
| 20260507160047 | 55 | 161 | 2.0 | 6.0 | 0.00 | 0.00 | 0.00 | 28 | 1023.5 |
| 20260507155554 | 54 | 136 | 2.0 | 7.0 | 0.00 | 0.00 | 0.00 | 29 | 1023.5 |
| 20260507155104 | 54 | 76 | 4.0 | 8.0 | 0.00 | 0.00 | 0.00 | 29 | 1023.5 |
| 20260507154504 | 53 | 103 | 4.0 | 9.0 | 0.00 | 0.00 | 0.00 | 30 | 1023.5 |
| 20260507154100 | 53 | 99 | 3.0 | 9.0 | 0.00 | 0.00 | 0.00 | 30 | 1023.5 |
| 20260507153504 | 52 | 124 | 4.0 | 10.0 | 0.00 | 0.00 | 0.00 | 30 | 1023.6 |
| 20260507153058 | 51 | 102 | 5.0 | 10.0 | 0.00 | 0.00 | 0.00 | 31 | 1023.6 |
| 20260507152552 | 51 | 103 | 7.0 | 10.0 | 0.00 | 0.00 | 0.00 | 30 | 1023.7 |
| 20260507152057 | 51 | 101 | 4.0 | 12.0 | 0.00 | 0.00 | 0.00 | 31 | 1023.7 |
| 20260507151605 | 50 | 137 | 5.0 | 12.0 | 0.00 | 0.00 | 0.00 | 32 | 1023.7 |
| 20260507151005 | 50 | 101 | 4.0 | 9.0 | 0.00 | 0.00 | 0.00 | 32 | 1023.7 |
| 20260507150601 | 49 | 100 | 5.0 | 10.0 | 0.00 | 0.00 | 0.00 | 33 | 1023.7 |
| 20260507150006 | 48 | 136 | 5.0 | 11.0 | 0.00 | 0.00 | 0.00 | 34 | 1023.8 |
| 20260507145601 | 48 | 88 | 7.0 | 11.0 | 0.00 | 0.00 | 0.00 | 34 | 1023.8 |
| 20260507145003 | 47 | 67 | 4.0 | 12.0 | 0.00 | 0.00 | 0.00 | 35 | 1023.9 |
| 20260507144600 | 47 | 97 | 6.0 | 12.0 | 0.00 | 0.00 | 0.00 | 35 | 1023.9 |
| 20260507144049 | 47 | 76 | 7.0 | 12.0 | 0.00 | 0.00 | 0.00 | 35 | 1023.9 |
| 20260507143555 | 46 | 69 | 5.0 | 12.0 | 0.00 | 0.00 | 0.00 | 36 | 1024.0 |
| 20260507143111 | 46 | 108 | 5.0 | 11.0 | 0.00 | 0.00 | 0.00 | 37 | 1023.9 |
| 20260507142504 | 45 | 90 | 6.0 | 11.0 | 0.00 | 0.00 | 0.00 | 36 | 1024.0 |
| 20260507142058 | 45 | 100 | 7.0 | 10.0 | 0.00 | 0.00 | 0.00 | 36 | 1023.9 |
| 20260507141502 | 44 | 86 | 5.0 | 11.0 | 0.00 | 0.00 | 0.00 | 37 | 1023.8 |
| 20260507141100 | 43 | 93 | 6.0 | 11.0 | 0.00 | 0.00 | 0.00 | 36 | 1023.8 |
| 20260507140606 | 43 | 109 | 5.0 | 11.0 | 0.00 | 0.00 | 0.00 | 36 | 1023.7 |
| 20260507140058 | 42 | 91 | 6.0 | 11.0 | 0.00 | 0.00 | 0.00 | 36 | 1023.8 |
| 20260507135604 | 41 | 71 | 6.0 | 10.0 | 0.00 | 0.00 | 0.00 | 36 | 1023.7 |
| 20260507135007 | 41 | 78 | 5.0 | 9.0 | 0.00 | 0.00 | 0.00 | 37 | 1023.7 |
| 20260507134603 | 40 | 96 | 5.0 | 8.0 | 0.00 | 0.00 | 0.00 | 38 | 1023.7 |
| 20260507134006 | 39 | 94 | 4.0 | 8.0 | 0.00 | 0.00 | 0.00 | 40 | 1023.6 |
| 20260507133513 | 38 | 107 | 4.0 | 8.0 | 0.00 | 0.00 | 0.00 | 41 | 1023.6 |
| 20260507133022 | 37 | 100 | 4.0 | 9.0 | 0.00 | 0.00 | 0.00 | 43 | 1023.6 |
| 20260507132524 | 37 | 107 | 5.0 | 9.0 | 0.00 | 0.00 | 0.00 | 43 | 1023.6 |
| 20260507132032 | 36 | 131 | 5.0 | 9.0 | 0.00 | 0.00 | 0.00 | 44 | 1023.6 |
| 20260507131552 | 36 | 98 | 5.0 | 11.0 | 0.00 | 0.00 | 0.00 | 44 | 1023.6 |
| 20260507131048 | 35 | 101 | 5.0 | 11.0 | 0.00 | 0.00 | 0.00 | 45 | 1023.6 |
| 20260507130537 | 35 | 132 | 5.0 | 10.0 | 0.00 | 0.00 | 0.00 | 45 | 1023.5 |
| 20260507130045 | 35 | 113 | 6.0 | 10.0 | 0.00 | 0.00 | 0.00 | 46 | 1023.5 |
| 20260507125552 | 34 | 92 | 5.0 | 8.0 | 0.00 | 0.00 | 0.00 | 47 | 1023.5 |
| 20260507125059 | 34 | 107 | 5.0 | 8.0 | 0.00 | 0.00 | 0.00 | 49 | 1023.4 |
| 20260507124550 | 33 | 72 | 4.0 | 7.0 | 0.00 | 0.00 | 0.00 | 52 | 1023.4 |
| 20260507124059 | 33 | 103 | 4.0 | 7.0 | 0.00 | 0.00 | 0.00 | 53 | 1023.4 |
| 20260507123604 | 32 | 112 | 3.0 | 6.0 | 0.00 | 0.00 | 0.00 | 51 | 1023.5 |
| 20260507123006 | 32 | 105 | 3.0 | 6.0 | 0.00 | 0.00 | 0.00 | 50 | 1023.5 |
| 20260507122602 | 32 | 113 | 2.0 | 4.0 | 0.00 | 0.00 | 0.00 | 51 | 1023.5 |
| 20260507122006 | 31 | 84 | 1.0 | 3.0 | 0.00 | 0.00 | 0.00 | 53 | 1023.4 |
| 20260507121602 | 31 | 95 | 1.0 | 3.0 | 0.00 | 0.00 | 0.00 | 52 | 1023.4 |
| 20260507121002 | 31 | 89 | 1.0 | 3.0 | 0.00 | 0.00 | 0.00 | 51 | 1023.3 |
| 20260507120557 | 31 | 100 | 2.0 | 2.0 | 0.00 | 0.00 | 0.00 | 51 | 1023.3 |
| 20260507120048 | 31 | 99 | 2.0 | 2.0 | 0.00 | 0.00 | 0.00 | 50 | 1023.4 |
| 20260507115557 | 31 | 100 | 2.0 | 3.0 | 0.00 | 0.00 | 0.00 | 50 | 1023.4 |